小惑星A/2021 F1

A/2021 F1

English version
Home page
Updated on September 18, 2021

---------------------------------------------------------------------

・ プロフィール

発見日 2021年3月19日
発見光度 21.81等
発見者 Pan-STARRS 1 telescope (Haleakala)

・ 写真集

・ 軌道要素

Epoch 2022 Apr. 11.0 TT = JDT 2459680.5
T 2022 Apr. 6.87625 TT                                  Rudenko
q   0.9954849            (2000.0)            P               Q
z  +0.0042240      Peri.  146.82331     +0.70300017     +0.60121049
 +/-0.0000088      Node   203.45138     +0.23496796     +0.30785623
e   0.9957951      Incl.  107.32429     +0.67125317     -0.73740795
H   17.5
From 131 observations 2021 Mar. 19-Aug. 9, mean residual 0".3.

・ 星図

・ 光度変化

        H = 14.0  G = 0.15

---------------------------------------------------------------------

軌道要素はM.P.E.C. 2021-R75に掲載されたものです。
星図はステラナビゲータ Ver.10 (アストロアーツ) で作成したものです。
光度グラフはComet for Windowsで作成したものです。

---------------------------------------------------------------------

Copyright(C) Seiichi Yoshida (comet@aerith.net). All rights reserved.